Location: Wrocław
(51.1046°N, 17.0456°E)
Time: 04:39:26
(UTC+01:00)

ISS - Visible Passes

Search period start: 24 November 2017 00:00
Search period end: 04 December 2017 00:00
Orbit: 402 x 407 km, 51.6° (Epoch: 24 November)

Date Brightness Start Highest point End Pass type
(mag) Time Alt. Az. Time Alt. Az. Time Alt. Az.
28 Nov -1.4 18:16:50 10° SSW 18:17:50 16° S 18:17:50 16° S visible
29 Nov -1.8 17:25:21 10° S 17:27:21 15° SE 17:27:45 15° SE visible
29 Nov -0.6 19:00:06 10° WSW 19:00:25 12° WSW 19:00:25 12° WSW visible
30 Nov -2.6 18:07:55 10° SW 18:10:15 33° S 18:10:15 33° S visible
01 Dec -2.4 17:15:56 10° SSW 17:18:45 27° SSE 17:20:01 21° ESE visible
01 Dec -1.0 18:51:40 10° WSW 18:52:40 18° WSW 18:52:40 18° WSW visible
02 Dec -1.7 16:24:15 10° S 16:26:32 18° SE 16:28:50 10° E visible
02 Dec -3.6 17:59:19 10° WSW 18:02:23 62° S 18:02:23 62° S visible
03 Dec -3.2 17:07:04 10° SW 17:10:13 45° SSE 17:12:04 21° E visible
03 Dec -1.4 18:43:18 10° W 18:44:42 23° W 18:44:42 23° W visible
